STARLINK-1122, 44949

Orbit data source: Space-Track

STARLINK-1122, 44949 is a payload satellite owned by SpaceX/Seattle (US) in LEO that was launched on Tue, 07 Jan 2020 UTC via an FALCON 9 launch vehicle from the Air Force Eastern Test Range (AFETR). Payload-class satellites include a variety of spacecraft equipped with specific instruments for various scientific and technological missions. These include communications satellites like Starlink; space stations such as the ISS; scientific satellites like the Hubble; Earth observation satellites from companies like Planet Labs, Umbra, and HawkEye 360; GPS; miniature CubeSats for education and research; and military/defense satellites.

Loading next visibility...
Identifier
44949, 2020-001AM
Orbit
LEO
Country
Flag of USUS
Related business
Manufacturer
SpaceX/Seattle
Mission
Operational Commercial Communications
Bus & Motor
STARLINK, Unknown motor
Mass
260 kg wet, ~248 kg dry
Launch date (UTC)
2020-01-07 (6 years ago)
Launch vehicle
FALCON 9
Launch site
Air Force Eastern Test Range (AFETR)
Object type
Payload
Rocket body
Debris
Shape & HBR
Box + 1 Pan, 10.1 m
Radar Cross Section
13.562 m², Large (>1 m²)

Expand to show TLE details & history
Last TLE update: 1 day ago

TLE from 1 day ago
0 STARLINK-1122
1 44949U 20001AM  25309.62334011  .00003223  00000-0  23510-3 0  9996
2 44949  53.0531 163.5712 0001083  85.2739 274.8374 15.06408459321429
Epoch: 2025-11-05T14:57Z
TLE epoch observation values (Epoch: 2025-11-05T14:57:36.585Z)
Latitude
0.00001°
Longitude
-105.92458°
Altitude
548.001 km
Speed
7.589 km/s
True Right ascension
10h 54m 17s
True Declination
0° 00' 00"
Sunlit
Object was in daylight at epoch
Visualization orbit readout
Latitude
Unknown
Longitude
Unknown
Altitude
Unknown
Speed
Unknown
Apparent Right ascension
Unknown
Apparent Declination
Unknown
Sunlit
N/A
Visualization observer readout
Local Sidereal Time
18:19:00
Azimuth
Unknown
Elevation
Unknown
Doppler factor
Unknown
Orbital elements
Apogee altitude
548.207 km
Perigee altitude
546.707 km
Semi-major axis
6,925.594 km
Eccentricity
0.00011
Inclination
53.0531°
RAAN
163.5712°
Arg. of periapsis
85.2739°
True anomaly
274.82503°
Mean anomaly
274.8374°
Eccentric anomaly
274.83122°
Mean motion
3.7658 °/min
Orbital period
95.6 mins
BSTAR
0.0002351
Loading maneuver chart data...
Computing Atmospheric mass density...

Documentation

Showing up to 5 results
|